Location: Brachstadt
(48.6975°N, 10.6755°E)
Time: 15:48:49
(UTC+00:00)

Lacrosse 5 rocket - Pass Details

Date: 18 September 2020
Orbit: 460 x 635 km, 57.0° (Epoch: 23 October)

Event Time Altitude Azimuth Distance (km) Brightness Sun altitude
Rises 18:07:07 0° 254° (WSW) 2,722 6.1 -8.1°
Reaches altitude 10° 18:09:21 10° 261° (W) 1,860 5.3 -8.4°
Maximum altitude 18:13:27 46° 335° (NNW) 790 2.4 -9.1°
Drops below altitude 10° 18:17:47 10° 50° (NE) 1,964 3.8 -9.8°
Enters shadow 18:19:33 - 55° (NE) 2,644 4.4 -10.1°
